time, Switch, Flow(0), Analog(2)
yyyy/mm/dd HH:MM:SS.fff, True=FILTERED|False=TOTAL, L/min, V
2023/06/14 15:00:04.503, True, 2.322, 0.141527
2023/06/14 15:00:04.999, True, 1.011, 0.142901
2023/06/14 15:00:05.503, True, 0.663, 0.141909
2023/06/14 15:00:06.006, True, 0.663, 0.144427
2023/06/14 15:00:06.503, True, 0.674, 0.145037
2023/06/14 15:00:07.006, True, 0.331, 0.144427
2023/06/14 15:00:07.511, True, 0.332, 0.140459
2023/06/14 15:00:08.006, True, 0.673, 0.143587
2023/06/14 15:00:08.510, True, 0.331, 0.141985
2023/06/14 15:00:09.015, True, 0.332, 0.140841
2023/06/14 15:00:09.511, True, 0.337, 0.142061
2023/06/14 15:00:10.014, True, 0.331, 0.142367
2023/06/14 15:00:10.519, True, 0.332, 0.144350
2023/06/14 15:00:11.014, True, 0.337, 0.141527
2023/06/14 15:00:11.518, True, 0.662, 0.144121
2023/06/14 15:00:12.022, True, 0.332, 0.142901
2023/06/14 15:00:12.519, True, 0.337, 0.140688
2023/06/14 15:00:13.022, True, 0.331, 0.141985
2023/06/14 15:00:13.527, True, 0.332, 0.143740
2023/06/14 15:00:14.023, True, 0.337, 0.141680
2023/06/14 15:00:14.526, True, 0.332, 0.141527
2023/06/14 15:00:15.030, True, 0.663, 0.141527
2023/06/14 15:00:15.527, True, 0.337, 0.139239
2023/06/14 15:00:16.030, True, 0.332, 0.143206
2023/06/14 15:00:16.534, True, 0.332, 0.140764
2023/06/14 15:00:17.031, True, 0.337, 0.140688
2023/06/14 15:00:17.535, True, 0.331, 0.142290
2023/06/14 15:00:18.030, True, 0.337, 0.142367
2023/06/14 15:00:18.534, True, 0.663, 0.142443
2023/06/14 15:00:19.039, True, 0.332, 0.142367
2023/06/14 15:00:19.543, True, 0.331, 0.141833
2023/06/14 15:00:20.039, True, 0.337, 0.140917
2023/06/14 15:00:20.543, True, 0.331, 0.142443
2023/06/14 15:00:21.046, True, 0.332, 0.142977
2023/06/14 15:00:21.543, True, 0.337, 0.142748
2023/06/14 15:00:22.046, True, 0.331, 0.143053
2023/06/14 15:00:22.550, True, 0.664, 0.140993
2023/06/14 15:00:23.046, True, 0.337, 0.143130
2023/06/14 15:00:23.550, True, 0.332, 0.141909
2023/06/14 15:00:24.055, True, 0.332, 0.139925
2023/06/14 15:00:24.551, True, 0.337, 0.141604
2023/06/14 15:00:25.054, True, 0.332, 0.143206
2023/06/14 15:00:25.558, True, 0.332, 0.140383
2023/06/14 15:00:26.054, True, 0.337, 0.142367
2023/06/14 15:00:26.558, True, 0.332, 0.142061
2023/06/14 15:00:27.063, True, 0.663, 0.142901
2023/06/14 15:00:27.559, True, 0.337, 0.141985
2023/06/14 15:00:28.063, True, 0.332, 0.141833
2023/06/14 15:00:28.566, True, 0.332, 0.140917
2023/06/14 15:00:29.063, True, 0.337, 0.141833
2023/06/14 15:00:29.566, True, 0.332, 0.140917
2023/06/14 15:00:30.062, True, 0.337, 0.140002
2023/06/14 15:00:30.566, True, 0.332, 0.141222
2023/06/14 15:00:31.070, True, 0.332, 0.143587
2023/06/14 15:00:31.566, True, 0.337, 0.141070
2023/06/14 15:00:32.071, True, 0.331, 0.142367
2023/06/14 15:00:32.574, True, 0.663, 0.141680
2023/06/14 15:00:33.070, True, 0.337, 0.141756
2023/06/14 15:00:33.575, True, 0.332, 0.142214
2023/06/14 15:00:34.078, True, 0.332, 0.143206
2023/06/14 15:00:34.574, True, 0.337, 0.142367
2023/06/14 15:00:35.078, True, 0.332, 0.142443
2023/06/14 15:00:35.582, True, 0.331, 0.141375
2023/06/14 15:00:36.086, True, 0.332, 0.141680
2023/06/14 15:00:36.583, True, 0.337, 0.139620
2023/06/14 15:00:37.086, True, 0.331, 0.140917
2023/06/14 15:00:37.591, True, 0.332, 0.142977
2023/06/14 15:00:38.086, True, 0.674, 0.141985
2023/06/14 15:00:38.590, True, 0.332, 0.139620
2023/06/14 15:00:39.093, True, 0.331, 0.139925
2023/06/14 15:00:39.590, True, 0.337, 0.140307
2023/06/14 15:00:40.094, True, 0.332, 0.142519
2023/06/14 15:00:40.598, True, 0.332, 0.142672
2023/06/14 15:00:41.094, True, 0.337, 0.142596
2023/06/14 15:00:41.598, True, 0.332, 0.141299
2023/06/14 15:00:42.102, True, 0.332, 0.141604
2023/06/14 15:00:42.598, True, 0.337, 0.142596
2023/06/14 15:00:43.102, True, 0.332, 0.140841
2023/06/14 15:00:43.606, True, 0.332, 0.141375
2023/06/14 15:00:44.110, True, 0.331, 0.141680
2023/06/14 15:00:44.606, True, 0.338, 0.142138
2023/06/14 15:00:45.110, True, 0.331, 0.140764
2023/06/14 15:00:45.614, True, 0.663, 0.142596
2023/06/14 15:00:46.110, True, 0.337, 0.139086
2023/06/14 15:00:46.614, True, 0.000, 0.140002
2023/06/14 15:00:47.118, True, 0.664, 0.141604
2023/06/14 15:00:47.614, True, 0.336, 0.141909
2023/06/14 15:00:48.118, True, 0.332, 0.140307
2023/06/14 15:00:48.622, True, 0.332, 0.141146
2023/06/14 15:00:49.126, True, 0.331, 0.138399
2023/06/14 15:00:49.622, True, 0.337, 0.142824
2023/06/14 15:00:50.126, True, 0.332, 0.142977
2023/06/14 15:00:50.630, True, 0.331, 0.142596
2023/06/14 15:00:51.126, True, 0.337, 0.140688
2023/06/14 15:00:51.630, True, 0.331, 0.138094
2023/06/14 15:00:52.134, True, 0.332, 0.140612
2023/06/14 15:00:52.630, True, 0.337, 0.142214
2023/06/14 15:00:53.134, True, 0.332, 0.141527
2023/06/14 15:00:53.638, True, 0.663, 0.141985
2023/06/14 15:00:54.134, True, 0.337, 0.140230
2023/06/14 15:00:54.637, True, 0.331, 0.141299
2023/06/14 15:00:55.142, True, 0.332, 0.144045
2023/06/14 15:00:55.638, True, 0.337, 0.142672
2023/06/14 15:00:56.142, True, 0.332, 0.143130
2023/06/14 15:00:56.646, True, 0.332, 0.140841
2023/06/14 15:00:57.142, True, 0.337, 0.141756
2023/06/14 15:00:57.646, True, 0.332, 0.141985
2023/06/14 15:00:58.142, True, 0.337, 0.140383
2023/06/14 15:00:58.646, True, 0.332, 0.145037
2023/06/14 15:00:59.150, True, 0.332, 0.143130
2023/06/14 15:00:59.646, True, 0.337, 0.140078
2023/06/14 15:01:00.150, True, 0.332, 0.143053
2023/06/14 15:01:00.654, True, 0.332, 0.141299
2023/06/14 15:01:01.150, True, 0.337, 0.142748
2023/06/14 15:01:01.654, True, 0.332, 0.141222
2023/06/14 15:01:02.158, True, 0.332, 0.141833
2023/06/14 15:01:02.654, True, 0.337, 0.141299
2023/06/14 15:01:03.158, True, 0.332, 0.140764
2023/06/14 15:01:03.662, True, 0.332, 0.143435
2023/06/14 15:01:04.158, True, 0.337, 0.140002
2023/06/14 15:01:04.662, True, 0.332, 0.139849
2023/06/14 15:01:05.166, True, 0.332, 0.142596
2023/06/14 15:01:05.662, True, 0.337, 0.139544
2023/06/14 15:01:06.166, True, 0.332, 0.140154
2023/06/14 15:01:06.662, True, 0.674, 0.141833
2023/06/14 15:01:07.166, True, 0.331, 0.142443
2023/06/14 15:01:07.670, True, 0.332, 0.140764
2023/06/14 15:01:08.166, True, 0.337, 0.142061
2023/06/14 15:01:08.670, True, 0.331, 0.140307
2023/06/14 15:01:09.174, True, 0.332, 0.141985
2023/06/14 15:01:09.670, True, 0.337, 0.140459
2023/06/14 15:01:10.174, True, 0.332, 0.143435
2023/06/14 15:01:10.678, True, 0.332, 0.143053
2023/06/14 15:01:11.182, True, 0.332, 0.141756
2023/06/14 15:01:11.678, True, 0.337, 0.141756
2023/06/14 15:01:12.182, True, 0.332, 0.141756
2023/06/14 15:01:12.678, True, 0.337, 0.141299
2023/06/14 15:01:13.182, True, 0.332, 0.140764
2023/06/14 15:01:13.686, True, 0.332, 0.141527
2023/06/14 15:01:14.190, True, 0.332, 0.142214
2023/06/14 15:01:14.686, True, 0.337, 0.142290
2023/06/14 15:01:15.190, True, 0.332, 0.140230
2023/06/14 15:01:15.694, True, 0.332, 0.142672
2023/06/14 15:01:16.190, True, 0.337, 0.141299
2023/06/14 15:01:16.694, True, 0.332, 0.141680
2023/06/14 15:01:17.198, True, 0.332, 0.141756
2023/06/14 15:01:17.694, True, 0.337, 0.142672
2023/06/14 15:01:18.198, True, 0.332, 0.140841
2023/06/14 15:01:18.702, True, 0.663, 0.140841
2023/06/14 15:01:19.198, True, 0.337, 0.141680
2023/06/14 15:01:19.702, True, 0.332, 0.141604
2023/06/14 15:01:20.206, True, 0.332, 0.140764
2023/06/14 15:01:20.702, True, 0.337, 0.143206
2023/06/14 15:01:21.206, True, 0.332, 0.142748
2023/06/14 15:01:21.710, True, 0.331, 0.141680
2023/06/14 15:01:22.206, True, 0.337, 0.140612
2023/06/14 15:01:22.710, True, 0.332, 0.142138
2023/06/14 15:01:23.214, True, 0.332, 0.140536
2023/06/14 15:01:23.709, True, 0.337, 0.141833
2023/06/14 15:01:24.214, True, 0.332, 0.141680
2023/06/14 15:01:24.718, True, 0.332, 0.141680
2023/06/14 15:01:25.214, True, 0.337, 0.145266
2023/06/14 15:01:25.718, True, 0.332, 0.180056
2023/06/14 15:01:26.222, True, 0.332, 0.143969
2023/06/14 15:01:26.718, True, 0.337, 0.145495
2023/06/14 15:01:27.222, True, 0.332, 0.143893
2023/06/14 15:01:27.726, True, 0.332, 0.142367
2023/06/14 15:01:28.222, True, 0.337, 0.144045
2023/06/14 15:01:28.726, True, 0.664, 0.141985
2023/06/14 15:01:29.230, True, 0.331, 0.141833
2023/06/14 15:01:29.726, True, 0.337, 0.141985
2023/06/14 15:01:30.230, True, 0.332, 0.143282
2023/06/14 15:01:30.734, True, 0.332, 0.142290
2023/06/14 15:01:31.230, True, 0.337, 0.140383
2023/06/14 15:01:31.734, True, 0.332, 0.141070
2023/06/14 15:01:32.238, True, 0.332, 0.141985
2023/06/14 15:01:32.734, True, 0.337, 0.141070
2023/06/14 15:01:33.238, True, 0.332, 0.142061
2023/06/14 15:01:33.742, True, 0.331, 0.140536
2023/06/14 15:01:34.238, True, 0.337, 0.142214
2023/06/14 15:01:34.742, True, 0.332, 0.142367
2023/06/14 15:01:35.246, True, 0.332, 0.141222
2023/06/14 15:01:35.742, True, 0.338, 0.141222
2023/06/14 15:01:36.246, True, 0.331, 0.143740
2023/06/14 15:01:36.750, True, 0.332, 0.140841
2023/06/14 15:01:37.246, True, 0.337, 0.141833
2023/06/14 15:01:37.750, True, 0.332, 0.142901
2023/06/14 15:01:38.254, True, 0.332, 0.141756
2023/06/14 15:01:38.750, True, 0.337, 0.139696
2023/06/14 15:01:39.254, True, 0.332, 0.144045
2023/06/14 15:01:39.758, True, 0.332, 0.142290
2023/06/14 15:01:40.262, True, 0.331, 0.141756
2023/06/14 15:01:40.758, True, 0.337, 0.142214
2023/06/14 15:01:41.262, True, 0.332, 0.142138
2023/06/14 15:01:41.766, True, 0.331, 0.142061
2023/06/14 15:01:42.262, True, 0.337, 0.141833
2023/06/14 15:01:42.766, True, 0.332, 0.141146
2023/06/14 15:01:43.269, True, 0.332, 0.141527
2023/06/14 15:01:43.766, True, 0.337, 0.139849
2023/06/14 15:01:44.270, True, 0.332, 0.141451
2023/06/14 15:01:44.774, True, 0.332, 0.142290
2023/06/14 15:01:45.270, True, 0.337, 0.140536
2023/06/14 15:01:45.773, True, 0.332, 0.140764
2023/06/14 15:01:46.278, True, 0.332, 0.140536
2023/06/14 15:01:46.782, True, 0.332, 0.142061
2023/06/14 15:01:47.278, True, 0.337, 0.140612
2023/06/14 15:01:47.782, True, 0.332, 0.142061
2023/06/14 15:01:48.286, True, 0.332, 0.141680
2023/06/14 15:01:48.782, True, 0.337, 0.138323
2023/06/14 15:01:49.286, True, 0.332, 0.143053
2023/06/14 15:01:49.790, True, 0.332, 0.140154
2023/06/14 15:01:50.286, True, 0.673, 0.142443
2023/06/14 15:01:50.790, True, 0.332, 0.141833
2023/06/14 15:01:51.294, True, 0.332, 0.142443
2023/06/14 15:01:51.790, True, 0.337, 0.140993
2023/06/14 15:01:52.294, True, 0.332, 0.143740
2023/06/14 15:01:52.798, True, 0.332, 0.142138
2023/06/14 15:01:53.294, True, 0.337, 0.141527
2023/06/14 15:01:53.798, True, 0.332, 0.142214
2023/06/14 15:01:54.302, True, 0.332, 0.141985
2023/06/14 15:01:54.798, True, 0.000, 0.141680
2023/06/14 15:01:55.302, True, 0.332, 0.140612
2023/06/14 15:01:55.806, True, 0.332, 0.141909
2023/06/14 15:01:56.310, True, 0.332, 0.140841
2023/06/14 15:01:56.806, True, 0.675, 0.145571
2023/06/14 15:01:57.310, True, 0.331, 0.143359
2023/06/14 15:01:57.814, True, 0.332, 0.142519
2023/06/14 15:01:58.310, True, 0.337, 0.142061
2023/06/14 15:01:58.814, True, 0.332, 0.141451
2023/06/14 15:01:59.317, True, 0.331, 0.141756
2023/06/14 15:01:59.814, True, 0.337, 0.142977
2023/06/14 15:02:00.318, True, 0.332, 0.141451
2023/06/14 15:02:00.822, True, 0.000, 0.140841
2023/06/14 15:02:01.318, True, 0.674, 0.140154
2023/06/14 15:02:01.822, True, 0.332, 0.144656
2023/06/14 15:02:02.326, True, 0.332, 0.142596
2023/06/14 15:02:02.822, True, 0.337, 0.143511
2023/06/14 15:02:03.326, True, 0.332, 0.144274
2023/06/14 15:02:03.830, True, 0.000, 0.140764
2023/06/14 15:02:04.326, True, 0.674, 0.144121
2023/06/14 15:02:04.830, True, 0.332, 0.142596
2023/06/14 15:02:05.334, True, 0.332, 0.142367
2023/06/14 15:02:05.837, True, 0.332, 0.143282
2023/06/14 15:02:06.334, True, 0.337, 0.144732
2023/06/14 15:02:06.838, True, 0.332, 0.142443
2023/06/14 15:02:07.342, True, 0.332, 0.141833
2023/06/14 15:02:07.837, True, 0.337, 0.143282
2023/06/14 15:02:08.342, True, 0.332, 0.142519
2023/06/14 15:02:08.846, True, 0.332, 0.142061
2023/06/14 15:02:09.350, True, 0.331, 0.141680
2023/06/14 15:02:09.846, True, 0.337, 0.144656
2023/06/14 15:02:10.350, True, 0.332, 0.143740
2023/06/14 15:02:10.854, True, 0.332, 0.141756
2023/06/14 15:02:11.350, True, 0.337, 0.142977
2023/06/14 15:02:11.854, True, 0.332, 0.143053
2023/06/14 15:02:12.358, True, 0.332, 0.142138
2023/06/14 15:02:12.854, True, 0.000, 0.144198
2023/06/14 15:02:13.358, True, 0.662, 0.142367
2023/06/14 15:02:13.862, True, 0.332, 0.143587
2023/06/14 15:02:14.358, True, 0.000, 0.143435
2023/06/14 15:02:14.862, True, 0.332, 0.144045
2023/06/14 15:02:15.366, True, 0.332, 0.141756
2023/06/14 15:02:15.862, True, 0.337, 0.143893
2023/06/14 15:02:16.366, True, 0.332, 0.144732
2023/06/14 15:02:16.862, True, 0.337, 0.145266
2023/06/14 15:02:17.366, True, 0.332, 0.143816
2023/06/14 15:02:17.870, True, 0.332, 0.144732
2023/06/14 15:02:18.374, True, 0.662, 0.144045
2023/06/14 15:02:18.869, True, 0.000, 0.143740
2023/06/14 15:02:19.374, True, 0.663, 0.144579
2023/06/14 15:02:19.877, True, 0.331, 0.145953
2023/06/14 15:02:20.382, True, 0.332, 0.143969
2023/06/14 15:02:20.878, True, 0.337, 0.145113
2023/06/14 15:02:21.382, True, 0.331, 0.146181
2023/06/14 15:02:21.877, True, 0.337, 0.143893
2023/06/14 15:02:22.382, True, 0.332, 0.143511
2023/06/14 15:02:22.886, True, 0.331, 0.144656
2023/06/14 15:02:23.390, True, 0.332, 0.147936
2023/06/14 15:02:23.886, True, 0.337, 0.142672
2023/06/14 15:02:24.390, True, 0.332, 0.144350
2023/06/14 15:02:24.894, True, 0.331, 0.144503
2023/06/14 15:02:25.390, True, 0.337, 0.147021
2023/06/14 15:02:25.894, True, 0.331, 0.144503
2023/06/14 15:02:26.398, True, 0.332, 0.144198
2023/06/14 15:02:26.893, True, 0.337, 0.144503
2023/06/14 15:02:27.398, True, 0.332, 0.145037
2023/06/14 15:02:27.902, True, 0.332, 0.145342
2023/06/14 15:02:28.398, True, 0.337, 0.144884
2023/06/14 15:02:28.902, True, 0.332, 0.146181
2023/06/14 15:02:29.405, True, 0.332, 0.143969
2023/06/14 15:02:29.902, True, 0.336, 0.146487
2023/06/14 15:02:30.406, True, 0.332, 0.146029
2023/06/14 15:02:30.910, True, 0.332, 0.145571
2023/06/14 15:02:31.406, True, 0.337, 0.146563
2023/06/14 15:02:31.910, True, 0.332, 0.144579
2023/06/14 15:02:32.414, True, 0.332, 0.147250
2023/06/14 15:02:32.910, True, 0.337, 0.143359
2023/06/14 15:02:33.414, True, 0.332, 0.144045
2023/06/14 15:02:33.918, True, 0.331, 0.144808
2023/06/14 15:02:34.414, True, 0.337, 0.146792
2023/06/14 15:02:34.918, True, 0.331, 0.146868
2023/06/14 15:02:35.422, True, 0.332, 0.146105
2023/06/14 15:02:35.917, True, 0.336, 0.146334
2023/06/14 15:02:36.422, True, 0.332, 0.146410
2023/06/14 15:02:36.926, True, 0.332, 0.149462
2023/06/14 15:02:37.422, True, 0.337, 0.145418
2023/06/14 15:02:37.926, True, 0.332, 0.145418
2023/06/14 15:02:38.430, True, 0.332, 0.145266
2023/06/14 15:02:38.926, True, 0.337, 0.145724
2023/06/14 15:02:39.430, True, 0.332, 0.146410
2023/06/14 15:02:39.934, True, 0.332, 0.145876
2023/06/14 15:02:40.430, True, 0.337, 0.147631
2023/06/14 15:02:40.934, True, 0.332, 0.147478
2023/06/14 15:02:41.438, True, 0.332, 0.146715
2023/06/14 15:02:41.934, True, 0.337, 0.148241
2023/06/14 15:02:42.438, True, 0.332, 0.149157
2023/06/14 15:02:42.942, True, 0.332, 0.148699
2023/06/14 15:02:43.438, True, 0.337, 0.148089
2023/06/14 15:02:43.942, True, 0.332, 0.149615
2023/06/14 15:02:44.445, True, 0.332, 0.150072
2023/06/14 15:02:44.942, True, 0.337, 0.148623
2023/06/14 15:02:45.446, True, 0.332, 0.149767
2023/06/14 15:02:45.950, True, 0.332, 0.150149
2023/06/14 15:02:46.446, True, 0.337, 0.150683
2023/06/14 15:02:46.950, True, 0.332, 0.149233
2023/06/14 15:02:47.454, True, 0.332, 0.150607
2023/06/14 15:02:47.950, True, 0.337, 0.149386
2023/06/14 15:02:48.454, True, 0.332, 0.150378
2023/06/14 15:02:48.958, True, 0.332, 0.151675
2023/06/14 15:02:49.454, True, 0.337, 0.150072
2023/06/14 15:02:49.958, True, 0.331, 0.151217
2023/06/14 15:02:50.462, True, 0.332, 0.150454
2023/06/14 15:02:50.958, True, 0.337, 0.150683
2023/06/14 15:02:51.462, True, 0.331, 0.151522
2023/06/14 15:02:51.966, True, 0.332, 0.152361
2023/06/14 15:02:52.462, True, 0.337, 0.151064
2023/06/14 15:02:52.966, True, 0.332, 0.153277
2023/06/14 15:02:53.470, True, 0.332, 0.152667
2023/06/14 15:02:53.966, True, 0.337, 0.151827
2023/06/14 15:02:54.470, True, 0.332, 0.151141
2023/06/14 15:02:54.974, True, 0.332, 0.152514
2023/06/14 15:02:55.470, True, 0.337, 0.153353
2023/06/14 15:02:55.974, True, 0.332, 0.153887
2023/06/14 15:02:56.478, True, 0.332, 0.153048
2023/06/14 15:02:56.974, True, 0.337, 0.151598
2023/06/14 15:02:57.478, True, 0.332, 0.152590
2023/06/14 15:02:57.982, True, 0.332, 0.152895
2023/06/14 15:02:58.478, True, 0.337, 0.152285
2023/06/14 15:02:58.982, True, 0.332, 0.151827
2023/06/14 15:02:59.486, True, 0.332, 0.153735
2023/06/14 15:02:59.982, True, 0.337, 0.156405
2023/06/14 15:03:00.486, True, 0.332, 0.152590
2023/06/14 15:03:00.990, True, 0.332, 0.155642
2023/06/14 15:03:01.486, True, 0.337, 0.152132
2023/06/14 15:03:01.990, True, 0.331, 0.153277
2023/06/14 15:03:02.493, True, 0.331, 0.153429
2023/06/14 15:03:02.990, True, 0.337, 0.154803
2023/06/14 15:03:03.494, True, 0.332, 0.152895
2023/06/14 15:03:03.998, True, 0.331, 0.151827
2023/06/14 15:03:04.494, True, 0.337, 0.152895
2023/06/14 15:03:04.998, True, 0.332, 0.152743
2023/06/14 15:03:05.502, True, 0.332, 0.153506
2023/06/14 15:03:06.006, True, 0.332, 0.154345
2023/06/14 15:03:06.502, True, 0.337, 0.152361
2023/06/14 15:03:07.006, True, 0.332, 0.151446
2023/06/14 15:03:07.502, True, 0.337, 0.151064
2023/06/14 15:03:08.006, True, 0.332, 0.151980
2023/06/14 15:03:08.510, True, 0.332, 0.151217
2023/06/14 15:03:09.014, True, 0.332, 0.151904
2023/06/14 15:03:09.510, True, 0.337, 0.153811
2023/06/14 15:03:10.014, True, 0.332, 0.153964
2023/06/14 15:03:10.518, True, 0.332, 0.153201
2023/06/14 15:03:11.014, True, 0.337, 0.152895
2023/06/14 15:03:11.518, True, 0.332, 0.153811
2023/06/14 15:03:12.022, True, 0.332, 0.154879
2023/06/14 15:03:12.517, True, 0.337, 0.151827
2023/06/14 15:03:13.022, True, 0.332, 0.152438
2023/06/14 15:03:13.518, True, 0.337, 0.151980
2023/06/14 15:03:14.022, True, 0.332, 0.151827
2023/06/14 15:03:14.526, True, 0.332, 0.150225
2023/06/14 15:03:15.030, True, 0.332, 0.151675
2023/06/14 15:03:15.526, True, 0.336, 0.154803
2023/06/14 15:03:16.030, True, 0.332, 0.154345
2023/06/14 15:03:16.534, True, 0.332, 0.152590
2023/06/14 15:03:17.030, True, 0.337, 0.151598
2023/06/14 15:03:17.534, True, 0.332, 0.151141
2023/06/14 15:03:18.030, True, 0.337, 0.154192
2023/06/14 15:03:18.534, True, 0.332, 0.153506
2023/06/14 15:03:19.038, True, 0.332, 0.156329
2023/06/14 15:03:19.534, True, 0.338, 0.155642
2023/06/14 15:03:20.038, True, 0.331, 0.152056
2023/06/14 15:03:20.542, True, 0.332, 0.154421
2023/06/14 15:03:21.038, True, 0.337, 0.153353
2023/06/14 15:03:21.542, True, 0.332, 0.152209
2023/06/14 15:03:22.045, True, 0.000, 0.152514
2023/06/14 15:03:22.542, True, 0.337, 0.153582
2023/06/14 15:03:23.046, True, 0.332, 0.152590
2023/06/14 15:03:23.550, True, 0.331, 0.152056
2023/06/14 15:03:24.054, True, 0.332, 0.154269
2023/06/14 15:03:24.550, True, 0.337, 0.152972
2023/06/14 15:03:25.054, True, 0.332, 0.151751
2023/06/14 15:03:25.558, True, 0.663, 0.150912
2023/06/14 15:03:26.054, True, 0.000, 0.151598
2023/06/14 15:03:26.558, True, 0.332, 0.153124
2023/06/14 15:03:27.062, True, 0.332, 0.154345
2023/06/14 15:03:27.558, True, 0.338, 0.153811
2023/06/14 15:03:28.061, True, 0.331, 0.154650
2023/06/14 15:03:28.566, True, 0.332, 0.154345
2023/06/14 15:03:29.062, True, 0.337, 0.152972
2023/06/14 15:03:29.565, True, 0.663, 0.151675
2023/06/14 15:03:30.069, True, 0.332, 0.151675
2023/06/14 15:03:30.566, True, 0.337, 0.152209
2023/06/14 15:03:31.070, True, 0.000, 0.152361
2023/06/14 15:03:31.574, True, 0.663, 0.153429
2023/06/14 15:03:32.070, True, 0.000, 0.150912
2023/06/14 15:03:32.574, True, 0.331, 0.153964
2023/06/14 15:03:33.069, True, 0.337, 0.153582
2023/06/14 15:03:33.573, True, 0.331, 0.151827
2023/06/14 15:03:34.078, True, 0.332, 0.153353
2023/06/14 15:03:34.573, True, 0.337, 0.153964
2023/06/14 15:03:35.077, True, 0.332, 0.155489
2023/06/14 15:03:35.581, True, 0.332, 0.153506
2023/06/14 15:03:36.078, True, 0.337, 0.154726
2023/06/14 15:03:36.581, True, 0.332, 0.153429
2023/06/14 15:03:37.085, True, 0.331, 0.151598
2023/06/14 15:03:37.582, True, 0.337, 0.151980
2023/06/14 15:03:38.085, True, 0.332, 0.152743
2023/06/14 15:03:38.589, True, 0.332, 0.154269
2023/06/14 15:03:39.086, True, 0.337, 0.151598
2023/06/14 15:03:39.590, True, 0.332, 0.151675
2023/06/14 15:03:40.094, True, 0.332, 0.153887
2023/06/14 15:03:40.589, True, 0.337, 0.153124
2023/06/14 15:03:41.094, True, 0.332, 0.153429
2023/06/14 15:03:41.598, True, 0.332, 0.153658
2023/06/14 15:03:42.093, True, 0.337, 0.153048
2023/06/14 15:03:42.597, True, 0.332, 0.152209
2023/06/14 15:03:43.102, True, 0.332, 0.155261
2023/06/14 15:03:43.597, True, 0.337, 0.155108
2023/06/14 15:03:44.102, True, 0.331, 0.151141
2023/06/14 15:03:44.606, True, 0.332, 0.153582
2023/06/14 15:03:45.102, True, 0.337, 0.153658
2023/06/14 15:03:45.606, True, 0.331, 0.153658
2023/06/14 15:03:46.109, True, 0.332, 0.153658
2023/06/14 15:03:46.613, True, 0.000, 0.153201
2023/06/14 15:03:47.110, True, 0.337, 0.152285
2023/06/14 15:03:47.613, True, 0.331, 0.153811
2023/06/14 15:03:48.110, True, 0.337, 0.154421
2023/06/14 15:03:48.614, True, 0.332, 0.151446
2023/06/14 15:03:49.118, True, 0.331, 0.153582
2023/06/14 15:03:49.622, True, 0.332, 0.153582
2023/06/14 15:03:50.118, True, 0.337, 0.152132
2023/06/14 15:03:50.622, True, 0.332, 0.151904
2023/06/14 15:03:51.126, True, 0.331, 0.153887
2023/06/14 15:03:51.622, True, 0.337, 0.152972
2023/06/14 15:03:52.126, True, 0.332, 0.154040
2023/06/14 15:03:52.630, True, 0.331, 0.153048
2023/06/14 15:03:53.134, True, 0.332, 0.153277
2023/06/14 15:03:53.630, True, 0.337, 0.155566
2023/06/14 15:03:54.134, True, 0.332, 0.153277
2023/06/14 15:03:54.637, True, 0.331, 0.152895
2023/06/14 15:03:55.133, True, 0.000, 0.151980
2023/06/14 15:03:55.638, True, 0.331, 0.152514
2023/06/14 15:03:56.141, True, 0.332, 0.152514
2023/06/14 15:03:56.645, True, 0.331, 0.153277
2023/06/14 15:03:57.142, True, 0.337, 0.153124
2023/06/14 15:03:57.646, True, 0.332, 0.151522
2023/06/14 15:03:58.142, True, 0.337, 0.154498
2023/06/14 15:03:58.645, True, 0.664, 0.152132
2023/06/14 15:03:59.150, True, 0.331, 0.153735
2023/06/14 15:03:59.646, True, 0.000, 0.153887
2023/06/14 15:04:00.150, True, 0.663, 0.155413
2023/06/14 15:04:00.654, True, 0.332, 0.152132
2023/06/14 15:04:01.158, True, 0.332, 0.153735
2023/06/14 15:04:01.654, True, 0.337, 0.153429
2023/06/14 15:04:02.158, True, 0.000, 0.154040
2023/06/14 15:04:02.662, True, 0.663, 0.152514
2023/06/14 15:04:03.158, True, 0.000, 0.151522
2023/06/14 15:04:03.662, True, 0.332, 0.155184
2023/06/14 15:04:04.165, True, 0.332, 0.152667
2023/06/14 15:04:04.669, True, 0.332, 0.153277
2023/06/14 15:04:05.166, True, 0.337, 0.152361
2023/06/14 15:04:05.670, True, 0.332, 0.153048
2023/06/14 15:04:06.173, True, 0.332, 0.152209
2023/06/14 15:04:06.669, True, 0.338, 0.154192
2023/06/14 15:04:07.174, True, 0.331, 0.153658
2023/06/14 15:04:07.670, True, 0.337, 0.151980
2023/06/14 15:04:08.174, True, 0.331, 0.154650
2023/06/14 15:04:08.678, True, 0.332, 0.152056
2023/06/14 15:04:09.181, True, 0.332, 0.153887
2023/06/14 15:04:09.678, True, 0.336, 0.153429
2023/06/14 15:04:10.182, True, 0.332, 0.154498
2023/06/14 15:04:10.678, True, 0.338, 0.154955
2023/06/14 15:04:11.182, True, 0.331, 0.152590
2023/06/14 15:04:11.686, True, 0.332, 0.154726
2023/06/14 15:04:12.182, True, 0.337, 0.154192
2023/06/14 15:04:12.686, True, 0.332, 0.152590
2023/06/14 15:04:13.190, True, 0.332, 0.154421
2023/06/14 15:04:13.685, True, 0.337, 0.153429